DL3TR-13 Weather Reports


Display with metric or nautical units.
time (UTC)temp
F
wind
direction
speed
MPH
gust
MPH
rain 1hr
in
rain 24hr
in
rain mn
in
humidity
%
barometer
mb
20260503180310 63 225 1.0 2.0 0.00 0.00 0.00 65 1011.1
20260503175310 64 225 0.0 1.0 0.00 0.00 0.00 61 1010.9
20260503174310 65 225 0.0 1.0 0.00 0.00 0.00 55 1010.9
20260503173310 66 225 0.0 0.0 0.00 0.00 0.00 57 1010.9
20260503172310 66 225 0.0 1.0 0.00 0.00 0.00 59 1010.9
20260503171310 66 225 0.0 2.0 0.00 0.00 0.00 60 1010.9
20260503170310 67 225 1.0 2.0 0.00 0.00 0.00 58 1010.9
20260503150310 71 253 3.0 5.0 0.00 0.00 0.00 44 1010.7
20260503140310 73 154 1.0 3.0 0.00 0.00 0.00 36 1010.9
20260503131310 72 250 4.0 8.0 0.00 0.00 0.00 43 1011.6
20260503130310 71 265 2.0 5.0 0.00 0.00 0.00 44 1011.6
20260503110311 73 215 4.0 8.0 0.00 0.00 0.00 42 1012.6
20260503090311 70 264 6.0 12.0 0.00 0.00 0.00 42 1013.7
20260503081311 68 252 2.0 5.0 0.00 0.00 0.00 40 1014.1
20260503080311 67 229 2.0 4.0 0.00 0.00 0.00 42 1014.0
20260503072311 66 265 0.0 4.0 0.00 0.00 0.00 43 1013.9
20260503071311 65 213 2.0 4.0 0.00 0.00 0.00 49 1013.9
20260503070311 64 91 0.0 1.0 0.00 0.00 0.00 45 1013.9
20260503060311 55 91 1.0 5.0 0.00 0.00 0.00 66 1014.1
20260503054312 51 91 1.0 3.0 0.00 0.00 0.00 72 1014.0
20260503053312 50 91 1.0 3.0 0.00 0.00 0.00 74 1014.1
20260503052311 49 91 1.0 3.0 0.00 0.00 0.00 75 1014.1
20260503051311 48 91 1.0 3.0 0.00 0.00 0.00 77 1014.0
20260503050311 46 91 1.0 2.0 0.00 0.00 0.00 78 1014.2
20260503045311 46 91 1.0 1.0 0.00 0.00 0.00 79 1014.3
20260503044311 46 91 0.0 2.0 0.00 0.00 0.00 79 1014.3
20260503043311 46 91 0.0 3.0 0.00 0.00 0.00 79 1014.3
20260503042311 46 91 0.0 2.0 0.00 0.00 0.00 79 1014.4
20260503041311 46 91 1.0 5.0 0.00 0.00 0.00 80 1014.4
20260503040311 45 91 1.0 3.0 0.00 0.00 0.00 80 1014.5
20260503035314 46 91 1.0 2.0 0.00 0.00 0.00 80 1014.4
20260503034312 46 91 0.0 2.0 0.00 0.00 0.00 80 1014.3
20260503033311 46 91 0.0 0.0 0.00 0.00 0.00 80 1014.3
20260503032312 46 91 0.0 1.0 0.00 0.00 0.00 80 1014.3
20260503031312 47 91 0.0 1.0 0.00 0.00 0.00 79 1014.4
20260503030311 47 91 0.0 3.0 0.00 0.00 0.00 79 1014.4
20260503025311 47 91 2.0 3.0 0.00 0.00 0.00 79 1014.6
20260503024311 47 91 1.0 3.0 0.00 0.00 0.00 79 1014.7
20260503023319 48 91 1.0 4.0 0.00 0.00 0.00 79 1014.7
20260503022311 47 341 2.0 4.0 0.00 0.00 0.00 81 1014.8
20260503021311 47 337 2.0 3.0 0.00 0.00 0.00 81 1014.9
20260503020311 46 337 2.0 3.0 0.00 0.00 0.00 84 1014.8
20260503015312 44 337 1.0 3.0 0.00 0.00 0.00 84 1015.0
20260503014311 45 337 0.0 2.0 0.00 0.00 0.00 81 1015.0
20260503013311 47 337 0.0 0.0 0.00 0.00 0.00 80 1014.9
20260503012311 47 337 0.0 2.0 0.00 0.00 0.00 77 1014.8
20260503011311 48 337 1.0 3.0 0.00 0.00 0.00 78 1014.8
20260503010311 48 337 1.0 3.0 0.00 0.00 0.00 79 1014.9
20260503005311 46 337 2.0 2.0 0.00 0.00 0.00 82 1014.9
20260503004311 45 337 0.0 0.0 0.00 0.00 0.00 80 1014.9
20260503003310 49 337 0.0 2.0 0.00 0.00 0.00 75 1015.0
20260503002311 50 337 1.0 2.0 0.00 0.00 0.00 75 1015.0
20260503001311 50 337 0.0 2.0 0.00 0.00 0.00 75 1015.1
20260503000311 50 337 1.0 3.0 0.00 0.00 0.00 74 1015.0
20260502235311 51 337 1.0 3.0 0.00 0.00 0.00 73 1015.1
20260502234311 51 337 2.0 3.0 0.00 0.00 0.00 73 1015.1
20260502233311 51 337 2.0 4.0 0.00 0.00 0.00 74 1015.2
20260502232311 50 334 2.0 4.0 0.00 0.00 0.00 76 1015.2
20260502231311 49 331 2.0 2.0 0.00 0.00 0.00 80 1015.2
20260502230311 48 331 0.0 0.0 0.00 0.00 0.00 79 1015.2
20260502225311 48 331 0.0 2.0 0.00 0.00 0.00 78 1015.1
20260502224311 49 331 0.0 0.0 0.00 0.00 0.00 78 1015.1
20260502223311 48 331 0.0 0.0 0.00 0.00 0.00 80 1015.2
20260502222311 48 331 0.0 3.0 0.00 0.00 0.00 77 1015.2
20260502221311 52 331 2.0 1.0 0.00 0.00 0.00 71 1015.0
20260502220311 53 331 0.0 2.0 0.00 0.00 0.00 68 1015.0
20260502215311 54 331 1.0 4.0 0.00 0.00 0.00 67 1015.0
20260502214311 54 331 2.0 3.0 0.00 0.00 0.00 67 1015.0
20260502213311 54 331 2.0 3.0 0.00 0.00 0.00 67 1015.1
20260502212311 55 331 3.0 4.0 0.00 0.00 0.00 66 1015.1
20260502211311 55 331 2.0 4.0 0.00 0.00 0.00 65 1015.2
20260502210311 56 330 2.0 4.0 0.00 0.00 0.00 64 1015.3
20260502205311 57 328 2.0 3.0 0.00 0.00 0.00 63 1015.4
20260502204311 57 328 2.0 3.0 0.00 0.00 0.00 63 1015.5
20260502203311 57 328 1.0 2.0 0.00 0.00 0.00 62 1015.5
20260502202311 58 328 0.0 2.0 0.00 0.00 0.00 61 1015.5
20260502201311 59 328 1.0 2.0 0.00 0.00 0.00 60 1015.6
20260502200311 59 328 1.0 3.0 0.00 0.00 0.00 59 1015.6
20260502195311 60 328 2.0 3.0 0.00 0.00 0.00 58 1015.6
20260502193311 60 328 0.0 3.0 0.00 0.00 0.00 57 1015.6
20260502191311 61 325 2.0 3.0 0.00 0.00 0.00 56 1015.5
20260502185311 63 325 0.0 0.0 0.00 0.00 0.00 53 1015.4
20260502184311 64 325 0.0 0.0 0.00 0.00 0.00 50 1015.5
20260502183311 65 325 0.0 0.0 0.00 0.00 0.00 48 1015.4
20260502182310 68 325 0.0 1.0 0.00 0.00 0.00 45 1015.4
20260502181311 69 325 0.0 2.0 0.00 0.00 0.00 41 1015.3